Tracking 27112 objects as of 26-Mar-2023
HD Live streaming from Space Station
objects crossing your sky now

ESA/GOES

Track ESA/GOES now!
ESA/GOES is classified as:


NORAD ID: 9931
Int'l Code: 1977-029A
Perigee: 2,895.8 km
Apogee: 38,272.7 km
Inclination: 26.9 °
Period: 734.0 minutes
Semi major axis: 26955 km
RCS: 4.0849 m2 (large)
Launch date: April 20, 1977
Source: European Space Agency (ESA)
Launch site: AIR FORCE EASTERN TEST RANGE (AFETR)
Your satellite tracking list
Your tracking list is empty




NASA's NSSDC Master Catalog

Two Line Element Set (TLE):
1 09931U 77029A   23084.01329740 -.00000122  00000-0  00000-0 0  9996
2 09931  26.8786 259.5536 6562141 310.1015   8.4539  1.96172277328691
Source of the keplerian elements: AFSPC